TELKOM 3S (41944 NORAD) Tracking and Keplerian Element Data

This shows tracking and keplerian element data for the satellite.

Feedback or suggestion? Click here.




ElementValue
Catalog41944
NameTELKOM 3S
Epoch Orbit2914
Epoch Day34.70685784
Epoch Year2025
RAAN89.0614
Inclination0.0225
Eccentricity0.0002349
Argument of Perigee225.1476
Mean Anonmoly192.3607
Mean Motion1.00270228
Decay Rate-3.59E-06
L11 41944U 17007A 25034.70685784 -.00000359 00000+0 00000+0 0 9992
L22 41944 0.0225 89.0614 0002349 225.1476 192.3607 1.00270228 29142



Live tracking and technical data element details for TELKOM 3S (NORAD 41944). TELKOM 3S can be tracked NOW for your location showing map with azimuth and elevation plus other details from your city location.







IsCatalogInMostPopularTable: catalog: 41944, numindb: 676
Update: records affected: 1



GetName: 41944 TELKOM 3S

Hit Count: updated at: Sat, 17 May 2025 09:18:29 GMT